Showing default

LANDSAT 1 (ERTS 1), 6126

Orbit data source: Space-Track

LANDSAT 1 (ERTS 1), 6126 is a payload satellite owned by GSFC (US) in SSO that was launched on Sun, 23 Jul 1972 UTC via a DELTA 0900 launch vehicle from the Air Force Western Test Range (AFWTR). Payload-class satellites include a variety of spacecraft equipped with specific instruments for various scientific and technological missions. These include communications satellites like Starlink; space stations such as the ISS; scientific satellites like the Hubble; Earth observation satellites from companies like Planet Labs, Umbra, and HawkEye 360; GPS; miniature CubeSats for education and research; and military/defense satellites.

Loading next visibility...
Identifier
6126, 1972-058A
Orbit
SSO
Country
Flag of USUS
Related business
Manufacturer
GE/MSVD
Mission
Non-operational spacecraft
Bus & Motor
NIMBUS, Unknown motor
Mass
891 kg wet, 891 kg dry
Launch date (UTC)
1972-07-23 (54 years ago)
Launch vehicle
DELTA 0900
Launch site
Air Force Western Test Range (AFWTR)
Object type
Payload
Rocket body
Debris
Shape & HBR
CONE + 2 PAN, 1.9 m
Radar Cross Section
Large (>1 m²)

Expand to show TLE details & history
Last TLE update: 5 hours ago

TLE from 5 hours ago
0 LANDSAT 1 (ERTS 1)
1  6126U 72058A   26247.84160875 -.00000267  00000-0 -15583-3 0  9999
2  6126  99.3325 278.9045 0008323  42.9645 317.2165 13.97841463759089
Epoch: 2026-09-04T20:11Z
TLE epoch observation values (Epoch: 2026-09-04T20:11:54.996Z)
Latitude
-0.00009°
Longitude
-8.03428°
Altitude
899.698 km
Speed
7.405 km/s
True Right ascension
18h 35m 37s
True Declination
0° 00' 00"
Sunlit
Object was in daylight at epoch
Visualization orbit readout
Latitude
Unknown
Longitude
Unknown
Altitude
Unknown
Speed
Unknown
Apparent Right ascension
Unknown
Apparent Declination
Unknown
Sunlit
N/A
Visualization observer readout
Local Sidereal Time
16:58:57
Azimuth
Unknown
Elevation
Unknown
Doppler factor
Unknown
Orbital elements
Apogee altitude
904.555 km
Perigee altitude
892.442 km
Semi-major axis
7,276.635 km
Eccentricity
0.00083
Inclination
99.3325°
RAAN
278.9045°
Arg. of periapsis
42.9645°
True anomaly
317.15167°
Mean anomaly
317.2165°
Eccentric anomaly
317.18409°
Mean motion
3.49661 °/min
Orbital period
102.96 mins
BSTAR
-0.00015583
Loading maneuver chart data...
Computing Atmospheric mass density...

Documentation

Showing up to 5 results
|